Salem, OR

8:26 PM PDT on July 23, 2017 (GMT -0700)
McNary

Weather History for KSLE - July, 2014

Change the Weather History Date:

Thursday, July 24, 2014

  Actual Average Record
Temperature  
Mean Temperature 64 °F 69 °F  
Max Temperature 71 °F 84 °F 102 °F (1928)
Min Temperature 56 °F 54 °F 42 °F (1953)
Degree Days  
Heating Degree Days 1 1  
Month to date heating degree days 3 29  
Since 1 June heating degree days 69 159  
Since 1 July heating degree days 3 29  
Cooling Degree Days 0 4  
Month to date cooling degree days 180 77  
Year to date cooling degree days 215 114  
Since 1 June cooling degree days 199 105  
Growing Degree Days 14 (Base 50)    
Moisture  
Dew Point 53 °F    
Average Humidity 70    
Maximum Humidity 93    
Minimum Humidity 47    
Precipitation  
Precipitation 0.03 in 0.01 in 0.10 in (1912)
Month to date precipitation 0.46 0.39  
Year to date precipitation 22.47 21.48  
Sea Level Pressure  
Sea Level Pressure 30.22 in    
Wind  
Wind Speed 8 mph (South)    
Max Wind Speed 17 mph    
Max Gust Speed 23 mph    
Visibility 10 miles    
Events Rain    
T = Trace of Precipitation, MM = Missing Value Source: NWS Daily Summary

Daily Weather History Graph

Daily Weather History Graph

Search for Another Location

Airport or City:

Trip Planner

Search our weather history database for the weather conditions in past years. The results will help you decide how hot, cold, wet, or windy it might be!

Date:

Astronomy

Jul. 24, 2014 Rise Set
Actual Time 5:48 AM PDT 8:47 PM PDT
Civil Twilight 5:14 AM PDT 9:22 PM PDT
Nautical Twilight 4:29 AM PDT 10:06 PM PDT
Astronomical Twilight 3:36 AM PDT 10:58 PM PDT
Moon 4:02 AM PDT 7:05 PM PDT
Length of Visible Light 16h 07m
Length of Day
14h 58m
Waning Crescent, 4% of the Moon is Illuminated
Jul 24
Waning Crescent
Jul 26
New
Aug 3
First Quarter
Aug 10
Full
Aug 17
Last Quarter

Hourly Weather History & Observations

Time (PDT) Temp. Dew Point Humidity Pressure Visibility Wind Dir Wind Speed Gust Speed Precip Events Conditions
12:56 AM 57.9 °F 51.1 °F 78% 30.18 in 10.0 mi South 8.1 mph - N/A   Mostly Cloudy
1:56 AM 57.9 °F 51.1 °F 78% 30.18 in 10.0 mi South 11.5 mph - N/A   Mostly Cloudy
2:56 AM 57.0 °F 52.0 °F 83% 30.19 in 10.0 mi South 11.5 mph - 0.02 in Rain Light Rain
3:56 AM 55.9 °F 52.0 °F 87% 30.19 in 10.0 mi South 11.5 mph - 0.00 in   Mostly Cloudy
4:56 AM 57.0 °F 52.0 °F 83% 30.20 in 10.0 mi South 12.7 mph - N/A   Overcast
5:40 AM 57.9 °F 52.0 °F 81% 30.20 in 10.0 mi South 13.8 mph - N/A   Overcast
5:56 AM 57.0 °F 52.0 °F 83% 30.21 in 8.0 mi South 12.7 mph - N/A   Overcast
6:36 AM 57.0 °F 52.0 °F 83% 30.21 in 10.0 mi South 13.8 mph - N/A   Mostly Cloudy
6:56 AM 57.9 °F 52.0 °F 81% 30.22 in 10.0 mi South 11.5 mph - N/A   Mostly Cloudy
7:56 AM 59.0 °F 53.1 °F 81% 30.24 in 10.0 mi South 11.5 mph 20.7 mph N/A   Mostly Cloudy
8:30 AM 57.9 °F 53.1 °F 84% 30.25 in 10.0 mi South 12.7 mph - N/A   Overcast
8:56 AM 59.0 °F 53.1 °F 81% 30.26 in 10.0 mi South 12.7 mph - N/A   Overcast
9:26 AM 59.0 °F 54.0 °F 83% 30.27 in 10.0 mi South 10.4 mph - N/A   Overcast
9:56 AM 57.9 °F 55.0 °F 90% 30.28 in 10.0 mi SE 6.9 mph - 0.01 in   Mostly Cloudy
10:14 AM 61.0 °F 57.0 °F 87% 30.28 in 10.0 mi SE 10.4 mph - N/A   Overcast
10:56 AM 63.0 °F 55.9 °F 78% 30.28 in 10.0 mi SSE 12.7 mph - N/A   Overcast
11:30 AM 66.0 °F 55.0 °F 68% 30.27 in 10.0 mi SE 11.5 mph - N/A   Mostly Cloudy
11:56 AM 66.0 °F 54.0 °F 65% 30.27 in 10.0 mi SSE 11.5 mph - N/A   Mostly Cloudy
1:56 PM 69.1 °F 51.1 °F 53% 30.25 in 10.0 mi WNW 5.8 mph - N/A   Mostly Cloudy
2:56 PM 70.0 °F 48.9 °F 47% 30.24 in 10.0 mi NNE 3.5 mph - N/A   Mostly Cloudy
3:56 PM 71.1 °F 51.1 °F 49% 30.22 in 10.0 mi WNW 5.8 mph - N/A   Overcast
4:56 PM 70.0 °F 51.1 °F 51% 30.21 in 10.0 mi Variable 3.5 mph - N/A   Overcast
5:56 PM 71.1 °F 53.1 °F 53% 30.19 in 10.0 mi NNW 8.1 mph - N/A   Overcast
6:56 PM 71.1 °F 52.0 °F 51% 30.17 in 10.0 mi NNW 5.8 mph - N/A   Overcast
7:56 PM 68.0 °F 51.1 °F 55% 30.17 in 10.0 mi NNW 5.8 mph - N/A   Clear
8:56 PM 64.0 °F 53.1 °F 67% 30.17 in 10.0 mi NNW 6.9 mph - N/A   Clear
9:56 PM 64.0 °F 53.1 °F 67% 30.18 in 10.0 mi WNW 4.6 mph - N/A   Mostly Cloudy
10:56 PM 62.1 °F 54.0 °F 75% 30.18 in 10.0 mi NNE 4.6 mph - N/A   Scattered Clouds
11:56 PM 61.0 °F 54.0 °F 78% 30.18 in 10.0 mi NNE 4.6 mph - N/A   Clear